Beaufort MCAS, SC

6:19 PM EDT on June 23, 2017 (GMT -0400)
Beaufort Marine Corps Air Station

Weather History for KNBC - February, 2014

Change the Weather History Date:

Friday, February 14, 2014

  Actual Average Record
Temperature  
Mean Temperature 50 °F -  
Max Temperature 64 °F 61 °F 70 °F (2017)
Min Temperature 35 °F 40 °F 28 °F (2015)
Degree Days  
Heating Degree Days 16    
Moisture  
Dew Point 33 °F    
Average Humidity 56    
Maximum Humidity 73    
Minimum Humidity 27    
Precipitation  
Precipitation 0.00 in - - ()
Sea Level Pressure  
Sea Level Pressure 29.90 in    
Wind  
Wind Speed 10 mph (WSW)    
Max Wind Speed 16 mph    
Max Gust Speed 21 mph    
Visibility 10 miles    
Events      
Averages and records for this station are not official NWS values.
T = Trace of Precipitation, MM = Missing Value Source: NWS Daily Summary

Daily Weather History Graph

Daily Weather History Graph

Search for Another Location

Airport or City:

Trip Planner

Search our weather history database for the weather conditions in past years. The results will help you decide how hot, cold, wet, or windy it might be!

Date:

Astronomy

Feb. 14, 2014 Rise Set
Actual Time 7:06 AM EST 6:07 PM EST
Civil Twilight 6:41 AM EST 6:33 PM EST
Nautical Twilight 6:12 AM EST 7:01 PM EST
Astronomical Twilight 5:44 AM EST 7:30 PM EST
Moon 6:07 PM EST (2/14) 6:34 AM EST (2/14)
Length of Visible Light 11h 51m
Length of Day
11h 01m
Full, 100% of the Moon is Illuminated
Feb 14
Full
Feb 14
Full
Feb 22
Last Quarter
Mar 1
New
Mar 8
First Quarter

Hourly Weather History & Observations

Time (EST) Temp. Windchill Dew Point Humidity Pressure Visibility Wind Dir Wind Speed Gust Speed Precip Events Conditions
12:56 AM 41.0 °F 34.7 °F 32.0 °F 70% 29.89 in 10.0 mi West 10.4 mph - N/A   Clear
1:56 AM 39.0 °F 32.8 °F 30.9 °F 73% 29.91 in 10.0 mi West 9.2 mph - N/A   Clear
2:56 AM 39.9 °F 33.4 °F 30.0 °F 68% 29.90 in 10.0 mi WNW 10.4 mph - N/A   Clear
3:56 AM 37.9 °F 33.5 °F 28.0 °F 68% 29.91 in 10.0 mi WNW 5.8 mph - N/A   Clear
4:56 AM 35.1 °F 28.6 °F 27.0 °F 72% 29.93 in 10.0 mi West 8.1 mph - N/A   Clear
5:56 AM 35.1 °F 28.6 °F 27.0 °F 72% 29.94 in 10.0 mi WSW 8.1 mph - N/A   Clear
6:56 AM 39.0 °F 32.3 °F 27.0 °F 62% 29.95 in 10.0 mi West 10.4 mph - N/A   Clear
7:56 AM 41.0 °F 35.8 °F 28.9 °F 62% 29.96 in 10.0 mi West 8.1 mph - N/A   Partly Cloudy
8:56 AM 46.9 °F - 30.9 °F 54% 29.97 in 10.0 mi West 10.4 mph - N/A   Scattered Clouds
9:56 AM 51.1 °F - 32.0 °F 48% 29.98 in 10.0 mi West 10.4 mph - N/A   Mostly Cloudy
10:56 AM 55.0 °F - 32.0 °F 42% 29.97 in 10.0 mi WNW 13.8 mph 20.7 mph N/A   Mostly Cloudy
11:56 AM 57.0 °F - 32.0 °F 39% 29.95 in 10.0 mi West 11.5 mph - N/A   Mostly Cloudy
12:56 PM 61.0 °F - 30.0 °F 31% 29.94 in 10.0 mi WSW 12.7 mph 20.7 mph N/A   Mostly Cloudy
1:56 PM 62.1 °F - 28.9 °F 29% 29.90 in 10.0 mi West 16.1 mph 20.7 mph N/A   Mostly Cloudy
2:56 PM 64.0 °F - 28.9 °F 27% 29.89 in 10.0 mi SW 10.4 mph 19.6 mph N/A   Mostly Cloudy
3:56 PM 64.0 °F - 28.9 °F 27% 29.88 in 10.0 mi SW 9.2 mph - N/A   Mostly Cloudy
4:26 PM 64.0 °F - 30.9 °F 29% 29.87 in 10.0 mi SSW 10.4 mph 18.4 mph N/A   Mostly Cloudy
4:56 PM 57.9 °F - 41.0 °F 53% 29.88 in 10.0 mi SSW 11.5 mph - N/A   Mostly Cloudy
5:56 PM 53.1 °F - 41.0 °F 64% 29.88 in 10.0 mi SSW 12.7 mph - N/A   Clear
6:56 PM 51.1 °F - 41.0 °F 68% 29.89 in 10.0 mi SSW 8.1 mph - N/A   Clear
7:56 PM 52.0 °F - 41.0 °F 66% 29.87 in 10.0 mi South 10.4 mph 16.1 mph N/A   Clear
8:56 PM 51.1 °F - 41.0 °F 68% 29.86 in 10.0 mi SSW 9.2 mph - N/A   Clear
9:56 PM 51.1 °F - 42.1 °F 71% 29.83 in 10.0 mi South 10.4 mph - N/A   Clear
10:56 PM 52.0 °F - 42.1 °F 69% 29.83 in 10.0 mi SSW 6.9 mph - N/A   Clear
11:56 PM 52.0 °F - 39.9 °F 63% 29.80 in 10.0 mi SW 9.2 mph - N/A   Clear